| time (UTC) | temp F | wind direction | speed MPH | gust MPH | rain 1hr in | rain 24hr in | rain mn in | humidity % | barometer mb |
| 20260510194224 | 52 | 348 | 2.0 | 6.0 | 0.00 | 0.00 | 0.00 | 75 | 1009.1 |
| 20260510193223 | 52 | 347 | 1.0 | 2.0 | 0.00 | 0.00 | 0.00 | 75 | 1009.1 |
| 20260510192217 | 53 | 346 | 1.0 | 4.0 | 0.00 | 0.00 | 0.00 | 74 | 1009.0 |
| 20260510191234 | 53 | 345 | 1.0 | 2.0 | 0.00 | 0.00 | 0.00 | 74 | 1009.0 |
| 20260510190231 | 53 | 348 | 2.0 | 3.0 | 0.00 | 0.00 | 0.00 | 73 | 1009.2 |
| 20260510185227 | 54 | 348 | 2.0 | 6.0 | 0.00 | 0.00 | 0.00 | 72 | 1009.1 |
| 20260510184224 | 54 | 346 | 2.0 | 6.0 | 0.00 | 0.00 | 0.00 | 72 | 1009.2 |
| 20260510183220 | 55 | 346 | 2.0 | 4.0 | 0.00 | 0.00 | 0.00 | 71 | 1009.2 |
| 20260510182217 | 55 | 349 | 1.0 | 4.0 | 0.00 | 0.00 | 0.00 | 71 | 1009.2 |
| 20260510181234 | 56 | 348 | 2.0 | 6.0 | 0.00 | 0.00 | 0.00 | 70 | 1009.1 |
| 20260510180231 | 56 | 351 | 2.0 | 3.0 | 0.00 | 0.00 | 0.00 | 70 | 1009.2 |
| 20260510175227 | 57 | 348 | 2.0 | 4.0 | 0.00 | 0.00 | 0.00 | 69 | 1009.1 |
| 20260510174224 | 57 | 346 | 1.0 | 4.0 | 0.00 | 0.00 | 0.00 | 69 | 1009.1 |
| 20260510173220 | 58 | 351 | 2.0 | 4.0 | 0.00 | 0.00 | 0.00 | 68 | 1009.2 |
| 20260510172216 | 58 | 344 | 2.0 | 6.0 | 0.00 | 0.00 | 0.00 | 67 | 1009.2 |
| 20260510171233 | 59 | 347 | 2.0 | 8.0 | 0.00 | 0.00 | 0.00 | 66 | 1009.1 |
| 20260510170230 | 59 | 345 | 3.0 | 9.0 | 0.00 | 0.00 | 0.00 | 65 | 1009.1 |
| 20260510165226 | 60 | 350 | 3.0 | 6.0 | 0.00 | 0.00 | 0.00 | 64 | 1009.2 |
| 20260510164223 | 61 | 347 | 2.0 | 6.0 | 0.00 | 0.00 | 0.00 | 63 | 1009.2 |
| 20260510163220 | 61 | 347 | 2.0 | 4.0 | 0.00 | 0.00 | 0.00 | 63 | 1009.4 |
| 20260510162216 | 61 | 348 | 2.0 | 4.0 | 0.00 | 0.00 | 0.00 | 62 | 1009.5 |
| 20260510161233 | 61 | 351 | 2.0 | 7.0 | 0.00 | 0.00 | 0.00 | 61 | 1009.5 |
| 20260510160230 | 63 | 348 | 1.0 | 4.0 | 0.00 | 0.00 | 0.00 | 61 | 1009.5 |
| 20260510155228 | 63 | 346 | 2.0 | 7.0 | 0.00 | 0.00 | 0.00 | 60 | 1009.7 |
| 20260510154223 | 62 | 348 | 1.0 | 3.0 | 0.00 | 0.00 | 0.00 | 62 | 1009.8 |
| 20260510153225 | 63 | 348 | 2.0 | 6.0 | 0.00 | 0.00 | 0.00 | 61 | 1009.8 |
| 20260510152217 | 64 | 348 | 2.0 | 3.0 | 0.00 | 0.00 | 0.00 | 61 | 1010.0 |
| 20260510151233 | 63 | 345 | 1.0 | 4.0 | 0.00 | 0.00 | 0.00 | 61 | 1010.1 |
| 20260510150231 | 64 | 351 | 1.0 | 3.0 | 0.00 | 0.00 | 0.00 | 59 | 1010.0 |
| 20260510145228 | 65 | 343 | 1.0 | 3.0 | 0.00 | 0.00 | 0.00 | 57 | 1010.2 |
| 20260510144224 | 64 | 343 | 2.0 | 4.0 | 0.00 | 0.00 | 0.00 | 58 | 1010.3 |
| 20260510143220 | 65 | 349 | 2.0 | 4.0 | 0.00 | 0.00 | 0.00 | 59 | 1010.4 |
| 20260510142217 | 65 | 343 | 1.0 | 4.0 | 0.00 | 0.00 | 0.00 | 59 | 1010.5 |
| 20260510141234 | 64 | 344 | 1.0 | 4.0 | 0.00 | 0.00 | 0.00 | 59 | 1010.5 |
| 20260510140230 | 64 | 345 | 2.0 | 3.0 | 0.00 | 0.00 | 0.00 | 61 | 1010.6 |
| 20260510135228 | 65 | 344 | 1.0 | 4.0 | 0.00 | 0.00 | 0.00 | 60 | 1010.8 |
| 20260510134224 | 65 | 346 | 2.0 | 4.0 | 0.00 | 0.00 | 0.00 | 59 | 1010.7 |
| 20260510133220 | 64 | 346 | 2.0 | 7.0 | 0.00 | 0.00 | 0.00 | 59 | 1011.0 |
| 20260510132217 | 65 | 344 | 2.0 | 3.0 | 0.00 | 0.00 | 0.00 | 59 | 1011.0 |
| 20260510131234 | 66 | 347 | 1.0 | 3.0 | 0.00 | 0.00 | 0.00 | 58 | 1011.3 |
| 20260510130230 | 63 | 342 | 1.0 | 4.0 | 0.00 | 0.00 | 0.00 | 63 | 1011.3 |
| 20260510125227 | 63 | 347 | 2.0 | 4.0 | 0.00 | 0.00 | 0.00 | 62 | 1011.4 |
| 20260510124223 | 66 | 346 | 2.0 | 3.0 | 0.00 | 0.00 | 0.00 | 57 | 1011.4 |
| 20260510123221 | 66 | 346 | 1.0 | 2.0 | 0.00 | 0.00 | 0.00 | 55 | 1011.5 |
| 20260510122217 | 65 | 342 | 1.0 | 3.0 | 0.00 | 0.00 | 0.00 | 57 | 1011.7 |
| 20260510121234 | 64 | 338 | 2.0 | 4.0 | 0.00 | 0.00 | 0.00 | 61 | 1011.8 |
| 20260510120230 | 66 | 346 | 1.0 | 2.0 | 0.00 | 0.00 | 0.00 | 56 | 1012.0 |
| 20260510115226 | 66 | 345 | 1.0 | 3.0 | 0.00 | 0.00 | 0.00 | 54 | 1012.1 |
| 20260510114223 | 64 | 345 | 1.0 | 4.0 | 0.00 | 0.00 | 0.00 | 60 | 1012.1 |
| 20260510113221 | 63 | 348 | 1.0 | 3.0 | 0.00 | 0.00 | 0.00 | 63 | 1012.2 |
| 20260510112216 | 63 | 345 | 1.0 | 3.0 | 0.00 | 0.00 | 0.00 | 62 | 1012.3 |
| 20260510111233 | 64 | 345 | 1.0 | 3.0 | 0.00 | 0.00 | 0.00 | 61 | 1012.3 |
| 20260510110230 | 64 | 343 | 1.0 | 3.0 | 0.00 | 0.00 | 0.00 | 63 | 1012.4 |
| 20260510105226 | 62 | 347 | 1.0 | 3.0 | 0.00 | 0.00 | 0.00 | 67 | 1012.6 |
| 20260510104223 | 63 | 341 | 2.0 | 3.0 | 0.00 | 0.00 | 0.00 | 65 | 1012.6 |
| 20260510103219 | 62 | 343 | 1.0 | 3.0 | 0.00 | 0.00 | 0.00 | 68 | 1012.6 |
| 20260510102216 | 63 | 343 | 2.0 | 4.0 | 0.00 | 0.00 | 0.00 | 65 | 1012.7 |
| 20260510101234 | 63 | 343 | 1.0 | 2.0 | 0.00 | 0.00 | 0.00 | 68 | 1012.7 |
| 20260510100230 | 63 | 344 | 1.0 | 3.0 | 0.00 | 0.00 | 0.00 | 65 | 1012.9 |
| 20260510095227 | 63 | 346 | 1.0 | 3.0 | 0.00 | 0.00 | 0.00 | 66 | 1012.9 |
| 20260510094224 | 62 | 346 | 1.0 | 2.0 | 0.00 | 0.00 | 0.00 | 70 | 1012.9 |
| 20260510093220 | 61 | 344 | 1.0 | 2.0 | 0.00 | 0.00 | 0.00 | 69 | 1013.0 |
| 20260510092218 | 61 | 345 | 2.0 | 3.0 | 0.00 | 0.00 | 0.00 | 71 | 1013.0 |
| 20260510091233 | 61 | 343 | 1.0 | 2.0 | 0.00 | 0.00 | 0.00 | 72 | 1013.1 |
| 20260510090230 | 60 | 346 | 0.0 | 2.0 | 0.00 | 0.00 | 0.00 | 74 | 1013.0 |
| 20260510085227 | 60 | 345 | 0.0 | 2.0 | 0.00 | 0.00 | 0.00 | 75 | 1013.1 |
| 20260510084225 | 59 | 347 | 1.0 | 3.0 | 0.00 | 0.00 | 0.00 | 75 | 1013.1 |
| 20260510083221 | 59 | 344 | 1.0 | 2.0 | 0.00 | 0.00 | 0.00 | 76 | 1013.1 |
| 20260510082218 | 58 | 343 | 1.0 | 3.0 | 0.00 | 0.00 | 0.00 | 77 | 1013.2 |
| 20260510081232 | 57 | 347 | 1.0 | 2.0 | 0.00 | 0.00 | 0.00 | 80 | 1013.1 |
| 20260510080229 | 56 | 346 | 1.0 | 2.0 | 0.00 | 0.00 | 0.00 | 82 | 1013.2 |
| 20260510075226 | 55 | 346 | 0.0 | 2.0 | 0.00 | 0.00 | 0.00 | 85 | 1013.2 |
| 20260510074223 | 54 | 348 | 1.0 | 3.0 | 0.00 | 0.00 | 0.00 | 85 | 1013.2 |
| 20260510073219 | 53 | 346 | 0.0 | 2.0 | 0.00 | 0.00 | 0.00 | 87 | 1013.3 |
| 20260510072218 | 52 | 345 | 0.0 | 1.0 | 0.00 | 0.00 | 0.00 | 88 | 1013.4 |
| 20260510071233 | 52 | 347 | 0.0 | 2.0 | 0.00 | 0.00 | 0.00 | 90 | 1013.4 |
| 20260510070230 | 51 | 344 | 0.0 | 2.0 | 0.00 | 0.00 | 0.00 | 91 | 1013.5 |
| 20260510065226 | 50 | 345 | 0.0 | 1.0 | 0.00 | 0.00 | 0.00 | 93 | 1013.5 |
| 20260510064223 | 50 | 343 | 0.0 | 1.0 | 0.00 | 0.00 | 0.00 | 93 | 1013.5 |
| 20260510063219 | 49 | 344 | 0.0 | 2.0 | 0.00 | 0.00 | 0.00 | 94 | 1013.5 |
| 20260510062216 | 48 | 342 | 0.0 | 1.0 | 0.00 | 0.00 | 0.00 | 95 | 1013.5 |
| 20260510061233 | 48 | 341 | 0.0 | 1.0 | 0.00 | 0.00 | 0.00 | 95 | 1013.6 |
| 20260510060229 | 47 | 342 | 0.0 | 1.0 | 0.00 | 0.00 | 0.00 | 95 | 1013.5 |
| 20260510055226 | 46 | 0.0 | 0.0 | 0.00 | 0.00 | 0.00 | 95 | 1013.4 | |
| 20260510054227 | 46 | 0.0 | 0.0 | 0.00 | 0.00 | 0.00 | 95 | 1013.5 | |
| 20260510053218 | 45 | 0.0 | 0.0 | 0.00 | 0.00 | 0.00 | 95 | 1013.5 | |
| 20260510052235 | 45 | 0.0 | 0.0 | 0.00 | 0.00 | 0.00 | 95 | 1013.4 | |
| 20260510051232 | 45 | 0.0 | 0.0 | 0.00 | 0.00 | 0.00 | 95 | 1013.5 | |
| 20260510050228 | 44 | 0.0 | 0.0 | 0.00 | 0.00 | 0.00 | 95 | 1013.4 | |
| 20260510045225 | 44 | 0.0 | 0.0 | 0.00 | 0.00 | 0.00 | 95 | 1013.5 | |
| 20260510044221 | 43 | 0.0 | 0.0 | 0.00 | 0.00 | 0.00 | 95 | 1013.6 | |
| 20260510043218 | 42 | 0.0 | 0.0 | 0.00 | 0.00 | 0.00 | 95 | 1013.6 | |
| 20260510042234 | 42 | 0.0 | 0.0 | 0.00 | 0.00 | 0.00 | 94 | 1013.5 | |
| 20260510041231 | 42 | 0.0 | 0.0 | 0.00 | 0.00 | 0.00 | 94 | 1013.4 | |
| 20260510040228 | 42 | 0.0 | 0.0 | 0.00 | 0.00 | 0.00 | 94 | 1013.3 | |
| 20260510035224 | 42 | 0.0 | 0.0 | 0.00 | 0.00 | 0.00 | 94 | 1013.3 | |
| 20260510034221 | 42 | 0.0 | 0.0 | 0.00 | 0.00 | 0.00 | 94 | 1013.5 | |
| 20260510033218 | 42 | 0.0 | 0.0 | 0.00 | 0.00 | 0.00 | 93 | 1013.5 | |
| 20260510032235 | 42 | 0.0 | 0.0 | 0.00 | 0.00 | 0.00 | 93 | 1013.5 | |
| 20260510031231 | 43 | 0.0 | 0.0 | 0.00 | 0.00 | 0.00 | 93 | 1013.6 | |
| 20260510030227 | 43 | 0.0 | 0.0 | 0.00 | 0.00 | 0.00 | 93 | 1013.6 | |
| 20260510025224 | 43 | 0.0 | 0.0 | 0.00 | 0.00 | 0.00 | 92 | 1013.7 | |
| 20260510024221 | 43 | 0.0 | 0.0 | 0.00 | 0.00 | 0.00 | 92 | 1013.8 | |
| 20260510023218 | 43 | 0.0 | 0.0 | 0.00 | 0.00 | 0.00 | 92 | 1013.7 | |
| 20260510022235 | 43 | 0.0 | 0.0 | 0.00 | 0.00 | 0.00 | 92 | 1013.8 | |
| 20260510021231 | 43 | 0.0 | 0.0 | 0.00 | 0.00 | 0.00 | 91 | 1013.8 | |
| 20260510020227 | 44 | 0.0 | 0.0 | 0.00 | 0.00 | 0.00 | 91 | 1013.7 | |
| 20260510015226 | 44 | 0.0 | 0.0 | 0.00 | 0.00 | 0.00 | 91 | 1013.8 | |
| 20260510014221 | 45 | 0.0 | 0.0 | 0.00 | 0.00 | 0.00 | 91 | 1013.9 | |
| 20260510013218 | 45 | 0.0 | 0.0 | 0.00 | 0.00 | 0.00 | 91 | 1013.9 | |
| 20260510012235 | 45 | 0.0 | 0.0 | 0.00 | 0.00 | 0.00 | 90 | 1013.9 | |
| 20260510011231 | 45 | 0.0 | 0.0 | 0.00 | 0.00 | 0.00 | 90 | 1014.0 | |
| 20260510010228 | 45 | 0.0 | 0.0 | 0.00 | 0.00 | 0.00 | 90 | 1014.0 | |
| 20260510005225 | 45 | 0.0 | 0.0 | 0.00 | 0.00 | 0.00 | 89 | 1014.0 | |
| 20260510004221 | 46 | 0.0 | 0.0 | 0.00 | 0.00 | 0.00 | 89 | 1014.0 | |
| 20260510003218 | 46 | 0.0 | 0.0 | 0.00 | 0.00 | 0.00 | 88 | 1014.2 | |
| 20260510002234 | 47 | 0.0 | 0.0 | 0.00 | 0.00 | 0.00 | 89 | 1014.3 | |
| 20260510001231 | 47 | 0.0 | 0.0 | 0.00 | 0.00 | 0.00 | 89 | 1014.4 | |
| 20260510000228 | 47 | 0.0 | 0.0 | 0.00 | 0.00 | 0.00 | 89 | 1014.5 | |
| 20260509235224 | 47 | 0.0 | 0.0 | 0.00 | 0.00 | 0.00 | 89 | 1014.7 | |
| 20260509234221 | 47 | 0.0 | 0.0 | 0.00 | 0.00 | 0.00 | 88 | 1014.7 | |
| 20260509233218 | 47 | 0.0 | 0.0 | 0.00 | 0.00 | 0.00 | 89 | 1014.8 | |
| 20260509232240 | 47 | 0.0 | 0.0 | 0.00 | 0.00 | 0.00 | 88 | 1014.8 | |
| 20260509231232 | 48 | 0.0 | 0.0 | 0.00 | 0.00 | 0.00 | 87 | 1014.8 | |
| 20260509230229 | 48 | 0.0 | 0.0 | 0.00 | 0.00 | 0.00 | 87 | 1014.9 | |
| 20260509225225 | 49 | 0.0 | 0.0 | 0.00 | 0.00 | 0.00 | 87 | 1014.9 | |
| 20260509224221 | 49 | 0.0 | 0.0 | 0.00 | 0.00 | 0.00 | 85 | 1015.0 | |
| 20260509223220 | 49 | 0.0 | 0.0 | 0.00 | 0.00 | 0.00 | 84 | 1015.1 | |
| 20260509222235 | 49 | 0.0 | 0.0 | 0.00 | 0.00 | 0.00 | 84 | 1015.2 | |
| 20260509221232 | 50 | 0.0 | 0.0 | 0.00 | 0.00 | 0.00 | 84 | 1015.2 | |
| 20260509220228 | 50 | 0.0 | 0.0 | 0.00 | 0.00 | 0.00 | 84 | 1015.2 | |
| 20260509215227 | 50 | 0.0 | 0.0 | 0.00 | 0.00 | 0.00 | 83 | 1015.2 | |
| 20260509214221 | 51 | 0.0 | 0.0 | 0.00 | 0.00 | 0.00 | 83 | 1015.1 | |
| 20260509213220 | 51 | 0.0 | 0.0 | 0.00 | 0.00 | 0.00 | 81 | 1015.1 | |
| 20260509212235 | 51 | 0.0 | 0.0 | 0.00 | 0.00 | 0.00 | 80 | 1015.3 | |
| 20260509211232 | 52 | 0.0 | 0.0 | 0.00 | 0.00 | 0.00 | 80 | 1015.3 | |
| 20260509210230 | 52 | 0.0 | 0.0 | 0.00 | 0.00 | 0.00 | 80 | 1015.4 | |
| 20260509205225 | 53 | 0.0 | 0.0 | 0.00 | 0.00 | 0.00 | 77 | 1015.5 | |
| 20260509204223 | 53 | 0.0 | 0.0 | 0.00 | 0.00 | 0.00 | 76 | 1015.6 | |
| 20260509203219 | 54 | 0.0 | 0.0 | 0.00 | 0.00 | 0.00 | 75 | 1015.7 | |
| 20260509202237 | 54 | 0.0 | 0.0 | 0.00 | 0.00 | 0.00 | 74 | 1015.6 | |
| 20260509201232 | 55 | 0.0 | 0.0 | 0.00 | 0.00 | 0.00 | 74 | 1015.6 | |
| 20260509200229 | 56 | 0.0 | 0.0 | 0.00 | 0.00 | 0.00 | 73 | 1015.5 | |
| 20260509195226 | 56 | 0.0 | 0.0 | 0.00 | 0.00 | 0.00 | 71 | 1015.6 |